Binghamton, NY

9:32 AM EST on February 25, 2017 (GMT -0500)
Binghamton Regional-Link

Weather History for KBGM - March, 2012

Change the Weather History Date:

Monday, March 19, 2012

  Actual Average Record
Temperature  
Mean Temperature 63 °F 34 °F  
Max Temperature 73 °F 42 °F 73 °F (2012)
Min Temperature 53 °F 25 °F -7 °F (1993)
Degree Days  
Heating Degree Days 2 31  
Month to date heating degree days 413 652  
Since 1 July heating degree days 4770 5851  
Cooling Degree Days 0 0  
Month to date cooling degree days 0 0  
Year to date cooling degree days 0 0  
Growing Degree Days 13 (Base 50)    
Moisture  
Dew Point 52 °F    
Average Humidity 66    
Maximum Humidity 86    
Minimum Humidity 46    
Precipitation  
Precipitation 0.02 in 0.10 in 1.23 in (2008)
Month to date precipitation 1.45 1.73  
Year to date precipitation 5.74 6.49  
Snow  
Snow 0.00 in 0.50 in 3.90 in (2006)
Month to date snowfall 4.1 10.8  
Since 1 July snowfall 42.8 74.7  
Snow Depth 0.00 in    
Sea Level Pressure  
Sea Level Pressure 30.19 in    
Wind  
Wind Speed 4 mph (SSE)    
Max Wind Speed 16 mph    
Max Gust Speed 23 mph    
Visibility 8 miles    
Events Rain , Thunderstorm    
T = Trace of Precipitation, MM = Missing Value Source: NWS Daily Summary

Daily Weather History Graph

Daily Weather History Graph

Search for Another Location

Airport or City:

Trip Planner

Search our weather history database for the weather conditions in past years. The results will help you decide how hot, cold, wet, or windy it might be!

Date:

Astronomy

Mar. 19, 2012 Rise Set
Actual Time 7:08 AM EDT 7:15 PM EDT
Civil Twilight 6:40 AM EDT 7:43 PM EDT
Nautical Twilight 6:07 AM EDT 8:16 PM EDT
Astronomical Twilight 5:34 AM EDT 8:49 PM EDT
Moon 5:21 AM EDT (3/19) 4:39 PM EDT (3/19)
Length of Visible Light 13h 03m
Length of Day
12h 07m
Waning Crescent, 8% of the Moon is Illuminated
Mar 19
Waning Crescent
Mar 22
New
Mar 30
First Quarter
Apr 6
Full
Apr 13
Last Quarter

Hourly Weather History & Observations

Time (EDT) Temp. Dew Point Humidity Pressure Visibility Wind Dir Wind Speed Gust Speed Precip Events Conditions
12:53 AM 57.0 °F 48.9 °F 74% 30.17 in 9.0 mi SSW 6.9 mph - N/A   Clear
1:53 AM 55.9 °F 48.0 °F 75% 30.16 in 10.0 mi SSW 8.1 mph - N/A   Clear
2:53 AM 55.0 °F 48.0 °F 77% 30.16 in 9.0 mi South 4.6 mph - N/A   Scattered Clouds
3:53 AM 55.9 °F 48.9 °F 77% 30.15 in 8.0 mi SSW 4.6 mph - N/A   Overcast
4:53 AM 55.0 °F 48.0 °F 77% 30.15 in 7.0 mi South 3.5 mph - N/A   Overcast
5:53 AM 55.0 °F 48.9 °F 80% 30.17 in 6.0 mi South 3.5 mph - N/A   Haze
6:53 AM 53.1 °F 48.0 °F 83% 30.17 in 6.0 mi South 3.5 mph - N/A   Haze
7:53 AM 53.1 °F 48.9 °F 86% 30.19 in 4.0 mi South 3.5 mph - N/A   Mostly Cloudy
8:53 AM 55.9 °F 50.0 °F 80% 30.19 in 5.0 mi Calm Calm - N/A   Haze
9:53 AM 59.0 °F 51.8 °F 77% 30.21 in 7.0 mi Calm Calm - N/A   Overcast
10:53 AM 62.6 °F 51.8 °F 68% 30.21 in 9.0 mi Calm Calm - N/A   Overcast
11:53 AM 63.0 °F 52.0 °F 67% 30.20 in 10.0 mi Calm Calm - N/A   Overcast
12:53 PM 64.0 °F 52.0 °F 65% 30.20 in 10.0 mi SSE 4.6 mph - N/A   Overcast
1:53 PM 64.9 °F 52.0 °F 63% 30.19 in 10.0 mi SSE 3.5 mph - N/A   Overcast
2:53 PM 69.1 °F 53.1 °F 57% 30.17 in 10.0 mi South 6.9 mph - N/A   Overcast
3:53 PM 71.1 °F 52.0 °F 51% 30.14 in 10.0 mi SSW 6.9 mph - N/A   Clear
4:53 PM 73.0 °F 52.0 °F 48% 30.14 in 10.0 mi Variable 5.8 mph - N/A   Mostly Cloudy
5:53 PM 71.1 °F 50.0 °F 47% 30.15 in 10.0 mi South 6.9 mph - N/A   Scattered Clouds
6:25 PM 64.4 °F 53.6 °F 68% 30.18 in 10.0 mi South 8.1 mph 17.3 mph 0.00 in Rain , Thunderstorm Light Rain
6:40 PM 60.8 °F 53.6 °F 77% 30.18 in 4.0 mi South 11.5 mph 17.3 mph 0.00 in Rain Light Rain
6:53 PM 61.0 °F 54.0 °F 78% 30.18 in 5.0 mi South 6.9 mph - 0.01 in Rain Light Rain
7:53 PM 63.0 °F 52.0 °F 67% 30.20 in 10.0 mi Calm Calm - 0.01 in   Overcast
8:53 PM 61.0 °F 54.0 °F 78% 30.22 in 10.0 mi East 3.5 mph - N/A   Overcast
9:53 PM 60.1 °F 54.0 °F 80% 30.23 in 10.0 mi East 3.5 mph - N/A   Overcast
10:15 PM 60.8 °F 55.4 °F 82% 30.24 in 10.0 mi ESE 4.6 mph - N/A   Overcast
10:32 PM 59.0 °F 55.4 °F 88% 30.23 in 10.0 mi ESE 5.8 mph - N/A   Overcast
10:53 PM 57.9 °F 54.0 °F 87% 30.23 in 10.0 mi East 3.5 mph - N/A   Mostly Cloudy
11:53 PM 57.0 °F 53.1 °F 87% 30.22 in 10.0 mi SSE 3.5 mph - N/A   Clear